Time,TemperatureF,DewpointF,PressureIn,WindDirection,WindDirectionDegrees,WindSpeedMPH,WindSpeedGustMPH,Humidity,HourlyPrecipIn,Conditions,Clouds,dailyrainin,SoftwareType,DateUTC
2013-02-01 00:00:00,33.6,22.4,30.18,West,269,0.0,0.0,63,0.00,,---,0.00,VWS V14.01,2013-02-01 07:00:00,
2013-02-01 00:05:00,33.1,21.9,30.18,West,266,0.0,0.0,63,0.00,,---,0.00,VWS V14.01,2013-02-01 07:05:00,
2013-02-01 00:10:00,32.7,21.9,30.18,SW,223,0.0,0.0,64,0.00,,---,0.00,VWS V14.01,2013-02-01 07:10:00,
2013-02-01 00:15:00,32.5,21.7,30.18,South,186,0.0,0.0,64,0.00,,---,0.00,VWS V14.01,2013-02-01 07:15:00,
2013-02-01 00:20:00,32.7,23.0,30.18,SSE,158,0.0,0.0,67,0.00,,---,0.00,VWS V14.01,2013-02-01 07:20:00,
2013-02-01 00:25:00,33.1,23.3,30.18,SE,140,0.0,0.0,67,0.00,,---,0.00,VWS V14.01,2013-02-01 07:25:00,
2013-02-01 00:30:00,32.7,23.0,30.18,SE,140,0.0,0.0,67,0.00,,---,0.00,VWS V14.01,2013-02-01 07:30:00,
2013-02-01 00:35:00,32.5,22.8,30.18,South,171,0.0,0.0,67,0.00,,---,0.00,VWS V14.01,2013-02-01 07:35:00,
2013-02-01 00:40:00,32.2,22.8,30.18,South,176,0.0,0.0,68,0.00,,---,0.00,VWS V14.01,2013-02-01 07:40:00,
2013-02-01 00:45:00,32.2,22.8,30.18,South,176,0.0,0.0,68,0.00,,---,0.00,VWS V14.01,2013-02-01 07:45:00,
2013-02-01 00:50:00,31.5,22.5,30.18,South,177,0.0,0.0,69,0.00,,---,0.00,VWS V14.01,2013-02-01 07:50:00,
2013-02-01 00:55:00,31.3,22.3,30.18,South,178,0.0,0.0,69,0.00,,---,0.00,VWS V14.01,2013-02-01 07:55:00,
2013-02-01 01:01:00,31.1,22.5,30.18,South,178,0.0,0.0,70,0.00,,---,0.00,VWS V14.01,2013-02-01 08:01:00,
2013-02-01 01:06:00,30.7,22.1,30.21,South,178,0.0,0.0,70,0.00,,---,0.00,VWS V14.01,2013-02-01 08:06:00,
2013-02-01 01:11:00,30.6,22.0,30.21,South,178,0.0,0.0,70,0.00,,---,0.00,VWS V14.01,2013-02-01 08:11:00,
2013-02-01 01:16:00,30.6,22.0,30.21,South,178,0.0,0.0,70,0.00,,---,0.00,VWS V14.01,2013-02-01 08:16:00,
2013-02-01 01:21:00,30.0,22.1,30.21,South,178,0.0,0.0,72,0.00,,---,0.00,VWS V14.01,2013-02-01 08:21:00,
2013-02-01 01:26:00,29.5,21.9,30.21,South,178,0.0,0.0,73,0.00,,---,0.00,VWS V14.01,2013-02-01 08:26:00,
2013-02-01 01:31:00,29.5,21.9,30.21,South,178,0.0,0.0,73,0.00,,---,0.00,VWS V14.01,2013-02-01 08:31:00,
2013-02-01 01:36:00,29.5,22.9,30.21,South,178,0.0,0.0,76,0.00,,---,0.00,VWS V14.01,2013-02-01 08:36:00,
2013-02-01 01:41:00,29.5,23.2,30.21,South,178,0.0,0.0,77,0.00,,---,0.00,VWS V14.01,2013-02-01 08:41:00,
2013-02-01 01:46:00,29.3,23.0,30.21,South,187,0.0,0.0,77,0.00,,---,0.00,VWS V14.01,2013-02-01 08:46:00,
2013-02-01 01:51:00,29.3,23.0,30.18,SSW,213,0.0,0.0,77,0.00,,---,0.00,VWS V14.01,2013-02-01 08:51:00,
2013-02-01 01:56:00,30.2,24.5,30.18,WSW,257,0.0,0.0,79,0.00,,---,0.00,VWS V14.01,2013-02-01 08:56:00,
2013-02-01 02:01:00,30.9,25.2,30.18,SW,230,0.0,0.0,79,0.00,,---,0.00,VWS V14.01,2013-02-01 09:01:00,
2013-02-01 02:06:00,31.8,26.1,30.18,SW,224,0.0,0.0,79,0.00,,---,0.00,VWS V14.01,2013-02-01 09:06:00,
2013-02-01 02:11:00,32.0,26.2,30.18,West,272,0.0,0.0,79,0.00,,---,0.00,VWS V14.01,2013-02-01 09:11:00,
2013-02-01 02:16:00,32.0,26.2,30.18,WSW,249,0.0,0.0,79,0.00,,---,0.00,VWS V14.01,2013-02-01 09:16:00,
2013-02-01 02:21:00,31.8,25.8,30.18,WNW,288,0.0,0.0,78,0.00,,---,0.00,VWS V14.01,2013-02-01 09:21:00,
2013-02-01 02:27:00,31.6,25.3,30.18,WNW,288,0.0,0.0,77,0.00,,---,0.00,VWS V14.01,2013-02-01 09:27:00,
2013-02-01 02:32:00,31.8,25.4,30.18,West,270,0.0,0.0,77,0.00,,---,0.00,VWS V14.01,2013-02-01 09:32:00,
2013-02-01 02:37:00,31.6,25.3,30.18,West,270,0.0,0.0,77,0.00,,---,0.00,VWS V14.01,2013-02-01 09:37:00,
2013-02-01 02:42:00,31.5,24.8,30.18,WSW,255,0.0,0.0,76,0.00,,---,0.00,VWS V14.01,2013-02-01 09:42:00,
2013-02-01 02:47:00,31.1,24.4,30.18,WSW,255,0.0,0.0,76,0.00,,---,0.00,VWS V14.01,2013-02-01 09:47:00,
2013-02-01 02:52:00,31.1,24.4,30.18,WSW,255,0.0,0.0,76,0.00,,---,0.00,VWS V14.01,2013-02-01 09:52:00,
2013-02-01 02:57:00,30.6,23.6,30.18,WSW,255,0.0,0.0,75,0.00,,---,0.00,VWS V14.01,2013-02-01 09:57:00,
2013-02-01 03:02:00,30.2,23.2,30.18,WSW,255,0.0,0.0,75,0.00,,---,0.00,VWS V14.01,2013-02-01 10:02:00,
2013-02-01 03:07:00,30.0,23.1,30.18,WSW,255,0.0,0.0,75,0.00,,---,0.00,VWS V14.01,2013-02-01 10:07:00,
2013-02-01 03:12:00,29.7,22.7,30.18,West,275,0.0,0.0,75,0.00,,---,0.00,VWS V14.01,2013-02-01 10:12:00,
2013-02-01 03:17:00,29.7,23.0,30.18,West,275,0.0,0.0,76,0.00,,---,0.00,VWS V14.01,2013-02-01 10:17:00,
2013-02-01 03:22:00,29.7,23.0,30.18,West,275,0.0,0.0,76,0.00,,---,0.00,VWS V14.01,2013-02-01 10:22:00,
2013-02-01 03:27:00,29.7,23.0,30.18,West,264,0.0,0.0,76,0.00,,---,0.00,VWS V14.01,2013-02-01 10:27:00,
2013-02-01 03:32:00,29.8,23.2,30.18,West,264,0.0,0.0,76,0.00,,---,0.00,VWS V14.01,2013-02-01 10:32:00,
2013-02-01 03:37:00,29.8,23.2,30.18,West,272,0.0,0.0,76,0.00,,---,0.00,VWS V14.01,2013-02-01 10:37:00,
2013-02-01 03:44:00,29.7,23.0,30.18,West,272,0.0,0.0,76,0.00,,---,0.00,VWS V14.01,2013-02-01 10:44:00,
2013-02-01 03:49:00,29.7,23.0,30.18,West,272,0.0,0.0,76,0.00,,---,0.00,VWS V14.01,2013-02-01 10:49:00,
2013-02-01 03:54:00,29.5,22.9,30.18,West,272,0.0,0.0,76,0.00,,---,0.00,VWS V14.01,2013-02-01 10:54:00,
2013-02-01 03:59:00,29.3,22.7,30.18,West,272,0.0,0.0,76,0.00,,---,0.00,VWS V14.01,2013-02-01 10:59:00,
2013-02-01 04:04:00,28.9,22.3,30.18,SW,236,0.0,0.0,76,0.00,,---,0.00,VWS V14.01,2013-02-01 11:04:00,
2013-02-01 04:10:00,29.1,22.8,30.18,SW,226,0.0,0.0,77,0.00,,---,0.00,VWS V14.01,2013-02-01 11:10:00,
2013-02-01 04:15:00,29.5,23.2,30.18,SW,229,0.0,0.0,77,0.00,,---,0.00,VWS V14.01,2013-02-01 11:15:00,
2013-02-01 04:20:00,30.2,23.9,30.18,WSW,240,0.0,0.0,77,0.00,,---,0.00,VWS V14.01,2013-02-01 11:20:00,
2013-02-01 04:25:00,30.6,24.2,30.18,South,182,0.0,0.0,77,0.00,,---,0.00,VWS V14.01,2013-02-01 11:25:00,
2013-02-01 04:30:00,30.7,24.4,30.18,South,182,0.0,0.0,77,0.00,,---,0.00,VWS V14.01,2013-02-01 11:30:00,
2013-02-01 04:35:00,30.9,24.6,30.18,South,184,0.0,0.0,77,0.00,,---,0.00,VWS V14.01,2013-02-01 11:35:00,
2013-02-01 04:40:00,31.1,24.8,30.18,South,184,0.0,0.0,77,0.00,,---,0.00,VWS V14.01,2013-02-01 11:40:00,
2013-02-01 04:45:00,30.7,24.4,30.18,South,184,0.0,0.0,77,0.00,,---,0.00,VWS V14.01,2013-02-01 11:45:00,
2013-02-01 04:50:00,30.6,23.9,30.18,South,183,0.0,0.0,76,0.00,,---,0.00,VWS V14.01,2013-02-01 11:50:00,
2013-02-01 04:55:00,30.4,23.7,30.18,South,184,0.0,0.0,76,0.00,,---,0.00,VWS V14.01,2013-02-01 11:55:00,
2013-02-01 05:00:00,30.2,23.9,30.18,South,184,0.0,0.0,77,0.00,,---,0.00,VWS V14.01,2013-02-01 12:00:00,
2013-02-01 05:05:00,30.2,23.9,30.18,SW,227,0.0,0.0,77,0.00,,---,0.00,VWS V14.01,2013-02-01 12:05:00,
2013-02-01 05:10:00,30.2,23.6,30.18,SW,227,0.0,0.0,76,0.00,,---,0.00,VWS V14.01,2013-02-01 12:10:00,
2013-02-01 05:15:00,30.0,23.4,30.18,SW,227,0.0,0.0,76,0.00,,---,0.00,VWS V14.01,2013-02-01 12:15:00,
2013-02-01 05:20:00,29.7,23.0,30.18,SW,227,0.0,0.0,76,0.00,,---,0.00,VWS V14.01,2013-02-01 12:20:00,
2013-02-01 05:25:00,29.5,22.9,30.18,SW,227,0.0,0.0,76,0.00,,---,0.00,VWS V14.01,2013-02-01 12:25:00,
2013-02-01 05:30:00,29.5,22.9,30.18,SW,226,0.0,0.0,76,0.00,,---,0.00,VWS V14.01,2013-02-01 12:30:00,
2013-02-01 05:35:00,28.9,22.3,30.18,SW,227,0.0,0.0,76,0.00,,---,0.00,VWS V14.01,2013-02-01 12:35:00,
2013-02-01 05:40:00,28.6,22.0,30.18,SW,227,0.0,0.0,76,0.00,,---,0.00,VWS V14.01,2013-02-01 12:40:00,
2013-02-01 05:45:00,28.6,22.0,30.18,SW,227,0.0,0.0,76,0.00,,---,0.00,VWS V14.01,2013-02-01 12:45:00,
2013-02-01 07:00:00,30.7,25.0,30.18,SSW,209,0.0,0.0,79,0.00,,---,0.00,VWS V14.01,2013-02-01 14:00:00,
2013-02-01 07:05:00,30.6,24.5,30.18,SW,214,0.0,0.0,78,0.00,,---,0.00,VWS V14.01,2013-02-01 14:05:00,
2013-02-01 07:10:00,30.2,24.2,30.18,SSW,207,0.0,0.0,78,0.00,,---,0.00,VWS V14.01,2013-02-01 14:10:00,
2013-02-01 07:15:00,30.2,23.9,30.18,South,184,0.0,0.0,77,0.00,,---,0.00,VWS V14.01,2013-02-01 14:15:00,
2013-02-01 07:20:00,30.0,23.7,30.18,South,184,0.0,0.0,77,0.00,,---,0.00,VWS V14.01,2013-02-01 14:20:00,
2013-02-01 07:26:00,29.7,23.4,30.18,South,184,0.0,0.0,77,0.00,,---,0.00,VWS V14.01,2013-02-01 14:26:00,
2013-02-01 07:31:00,29.5,22.9,30.18,South,184,0.0,0.0,76,0.00,,---,0.00,VWS V14.01,2013-02-01 14:31:00,
2013-02-01 07:36:00,29.3,22.7,30.21,South,184,0.0,0.0,76,0.00,,---,0.00,VWS V14.01,2013-02-01 14:36:00,
2013-02-01 07:41:00,28.9,22.3,30.21,South,184,0.0,0.0,76,0.00,,---,0.00,VWS V14.01,2013-02-01 14:41:00,
2013-02-01 07:46:00,28.9,22.3,30.21,East,88,0.0,0.0,76,0.00,,---,0.00,VWS V14.01,2013-02-01 14:46:00,
2013-02-01 07:51:00,29.5,23.2,30.21,ENE,62,0.0,0.0,77,0.00,,---,0.00,VWS V14.01,2013-02-01 14:51:00,
2013-02-01 07:56:00,29.7,23.4,30.21,ENE,62,0.0,0.0,77,0.00,,---,0.00,VWS V14.01,2013-02-01 14:56:00,
2013-02-01 08:01:00,29.8,23.5,30.21,SSE,168,0.0,0.0,77,0.00,,---,0.00,VWS V14.01,2013-02-01 15:01:00,
2013-02-01 08:06:00,30.2,23.9,30.21,SSW,194,0.0,0.0,77,0.00,,---,0.00,VWS V14.01,2013-02-01 15:06:00,
2013-02-01 08:11:00,30.6,24.2,30.21,SSW,194,0.0,0.0,77,0.00,,---,0.00,VWS V14.01,2013-02-01 15:11:00,
2013-02-01 08:16:00,30.9,24.6,30.21,SSW,194,0.0,0.0,77,0.00,,---,0.00,VWS V14.01,2013-02-01 15:16:00,
2013-02-01 08:21:00,31.6,25.3,30.21,East,93,0.0,0.0,77,0.00,,---,0.00,VWS V14.01,2013-02-01 15:21:00,
2013-02-01 08:27:00,32.7,26.3,30.21,NNE,21,0.0,0.0,77,0.00,,---,0.00,VWS V14.01,2013-02-01 15:27:00,
2013-02-01 08:32:00,33.4,26.7,30.21,NNE,30,0.0,0.0,76,0.00,,---,0.00,VWS V14.01,2013-02-01 15:32:00,
2013-02-01 08:37:00,34.5,26.8,30.21,NNE,13,0.0,0.0,73,0.00,,---,0.00,VWS V14.01,2013-02-01 15:37:00,
2013-02-01 08:42:00,35.1,27.0,30.21,NNE,21,0.0,0.0,72,0.00,,---,0.00,VWS V14.01,2013-02-01 15:42:00,
2013-02-01 08:47:00,35.8,26.3,30.21,North,357,0.0,0.0,68,0.00,,---,0.00,VWS V14.01,2013-02-01 15:47:00,
2013-02-01 08:52:00,37.2,25.8,30.21,North,357,0.0,0.0,63,0.00,,---,0.00,VWS V14.01,2013-02-01 15:52:00,
2013-02-01 08:57:00,39.0,25.1,30.21,NNE,18,0.0,0.0,57,0.00,,---,0.00,VWS V14.01,2013-02-01 15:57:00,
2013-02-01 09:02:00,39.9,24.2,30.21,North,353,0.0,0.0,53,0.00,,---,0.00,VWS V14.01,2013-02-01 16:02:00,
2013-02-01 09:07:00,40.6,23.9,30.21,North,0,0.0,0.0,51,0.00,,---,0.00,VWS V14.01,2013-02-01 16:07:00,
2013-02-01 09:12:00,41.0,23.8,30.21,North,3,0.0,0.0,50,0.00,,---,0.00,VWS V14.01,2013-02-01 16:12:00,
2013-02-01 09:17:00,42.1,23.3,30.21,North,8,0.0,0.0,47,0.00,,---,0.00,VWS V14.01,2013-02-01 16:17:00,
2013-02-01 09:22:00,43.5,25.1,30.21,NNE,29,0.0,0.0,48,0.00,,---,0.00,VWS V14.01,2013-02-01 16:22:00,
2013-02-01 09:27:00,43.7,24.3,30.21,North,2,0.0,0.0,46,0.00,,---,0.00,VWS V14.01,2013-02-01 16:27:00,
2013-02-01 09:32:00,43.9,25.0,30.21,North,8,0.0,0.0,47,0.00,,---,0.00,VWS V14.01,2013-02-01 16:32:00,
2013-02-01 09:37:00,44.2,25.8,30.21,NNE,18,3.4,4.5,48,0.00,,---,0.00,VWS V14.01,2013-02-01 16:37:00,
2013-02-01 09:42:00,44.6,24.6,30.21,NNW,327,3.4,3.4,45,0.00,,---,0.00,VWS V14.01,2013-02-01 16:42:00,
2013-02-01 09:47:00,45.1,24.5,30.21,North,357,0.0,0.0,44,0.00,,---,0.00,VWS V14.01,2013-02-01 16:47:00,
2013-02-01 09:52:00,45.7,25.6,30.21,NNE,17,3.4,4.5,45,0.00,,---,0.00,VWS V14.01,2013-02-01 16:52:00,
2013-02-01 09:57:00,45.7,25.6,30.21,NNW,345,3.4,3.4,45,0.00,,---,0.00,VWS V14.01,2013-02-01 16:57:00,
2013-02-01 10:02:00,46.0,23.7,30.21,NNE,17,6.7,6.7,41,0.00,,---,0.00,VWS V14.01,2013-02-01 17:02:00,
2013-02-01 10:07:00,46.0,23.7,30.21,North,0,4.5,4.5,41,0.00,,---,0.00,VWS V14.01,2013-02-01 17:07:00,
2013-02-01 10:12:00,46.2,23.8,30.21,NNW,337,5.0,5.0,41,0.00,,---,0.00,VWS V14.01,2013-02-01 17:12:00,
2013-02-01 10:17:00,46.8,23.7,30.21,NNE,23,0.0,0.0,40,0.00,,---,0.00,VWS V14.01,2013-02-01 17:17:00,
2013-02-01 10:22:00,47.1,24.1,30.21,North,11,3.4,3.9,40,0.00,,---,0.00,VWS V14.01,2013-02-01 17:22:00,
2013-02-01 10:27:00,47.8,24.7,30.21,North,357,5.0,5.0,40,0.00,,---,0.00,VWS V14.01,2013-02-01 17:27:00,
2013-02-01 10:32:00,48.6,24.1,30.21,North,357,3.4,3.4,38,0.00,,---,0.00,VWS V14.01,2013-02-01 17:32:00,
2013-02-01 10:38:00,49.1,24.6,30.21,North,350,3.4,3.4,38,0.00,,---,0.00,VWS V14.01,2013-02-01 17:38:00,
2013-02-01 10:43:00,50.0,24.8,30.21,NNW,340,6.2,6.2,37,0.00,,---,0.00,VWS V14.01,2013-02-01 17:43:00,
2013-02-01 10:48:00,50.7,24.8,30.21,North,357,0.0,0.0,36,0.00,,---,0.00,VWS V14.01,2013-02-01 17:48:00,
2013-02-01 10:53:00,50.9,24.2,30.21,North,5,3.4,4.5,35,0.00,,---,0.00,VWS V14.01,2013-02-01 17:53:00,
2013-02-01 10:58:00,51.3,25.2,30.21,NNW,346,3.9,3.9,36,0.00,,---,0.00,VWS V14.01,2013-02-01 17:58:00,
2013-02-01 11:03:00,51.4,24.7,30.21,North,357,4.5,4.5,35,0.00,,---,0.00,VWS V14.01,2013-02-01 18:03:00,
2013-02-01 11:08:00,52.0,23.8,30.21,North,8,6.7,6.7,33,0.00,,---,0.00,VWS V14.01,2013-02-01 18:08:00,
2013-02-01 11:13:00,52.3,24.1,30.21,North,4,3.9,5.0,33,0.00,,---,0.00,VWS V14.01,2013-02-01 18:13:00,
2013-02-01 11:18:00,52.9,24.6,30.21,North,5,0.0,0.0,33,0.00,,---,0.00,VWS V14.01,2013-02-01 18:18:00,
2013-02-01 11:23:00,54.5,23.7,30.21,North,353,5.0,5.0,30,0.00,,---,0.00,VWS V14.01,2013-02-01 18:23:00,
2013-02-01 11:28:00,55.0,22.5,30.21,NNW,329,3.9,3.9,28,0.00,,---,0.00,VWS V14.01,2013-02-01 18:28:00,
2013-02-01 11:33:00,55.4,22.9,30.21,NNW,330,3.4,4.5,28,0.00,,---,0.00,VWS V14.01,2013-02-01 18:33:00,
2013-02-01 11:38:00,55.6,23.0,30.21,NNE,15,3.4,3.4,28,0.00,,---,0.00,VWS V14.01,2013-02-01 18:38:00,
2013-02-01 11:43:00,55.6,23.0,30.21,North,357,5.0,5.0,28,0.00,,---,0.00,VWS V14.01,2013-02-01 18:43:00,
2013-02-01 11:48:00,56.5,22.0,30.21,NNE,26,4.5,4.5,26,0.00,,---,0.00,VWS V14.01,2013-02-01 18:48:00,
2013-02-01 11:53:00,56.7,22.2,30.21,NNE,21,3.4,5.0,26,0.00,,---,0.00,VWS V14.01,2013-02-01 18:53:00,
2013-02-01 11:58:00,56.5,22.0,30.21,North,0,3.9,3.9,26,0.00,,---,0.00,VWS V14.01,2013-02-01 18:58:00,
2013-02-01 12:03:00,56.1,21.7,30.21,NNW,339,5.6,5.6,26,0.00,,---,0.00,VWS V14.01,2013-02-01 19:03:00,
2013-02-01 12:08:00,56.3,21.9,30.21,NNE,18,6.2,7.8,26,0.00,,---,0.00,VWS V14.01,2013-02-01 19:08:00,
2013-02-01 12:13:00,56.8,22.3,30.21,NE,51,0.0,3.4,26,0.00,,---,0.00,VWS V14.01,2013-02-01 19:13:00,
2013-02-01 12:18:00,57.2,21.7,30.21,NNE,23,5.0,5.0,25,0.00,,---,0.00,VWS V14.01,2013-02-01 19:18:00,
2013-02-01 12:23:00,57.4,21.9,30.21,North,10,5.0,7.8,25,0.00,,---,0.00,VWS V14.01,2013-02-01 19:23:00,
2013-02-01 12:28:00,57.4,20.9,30.21,NNE,25,0.0,0.0,24,0.00,,---,0.00,VWS V14.01,2013-02-01 19:28:00,
2013-02-01 12:34:00,58.1,21.5,30.21,North,6,5.0,5.0,24,0.00,,---,0.00,VWS V14.01,2013-02-01 19:34:00,
2013-02-01 12:39:00,58.6,22.0,30.21,North,350,6.2,6.2,24,0.00,,---,0.00,VWS V14.01,2013-02-01 19:39:00,
2013-02-01 12:44:00,59.2,20.4,30.21,North,0,0.0,0.0,22,0.00,,---,0.00,VWS V14.01,2013-02-01 19:44:00,
2013-02-01 12:49:00,59.2,20.4,30.21,NNE,18,6.2,6.2,22,0.00,,---,0.00,VWS V14.01,2013-02-01 19:49:00,
2013-02-01 12:54:00,59.4,20.5,30.18,NW,310,6.2,6.2,22,0.00,,---,0.00,VWS V14.01,2013-02-01 19:54:00,
2013-02-01 12:59:00,59.5,17.3,30.18,North,0,6.2,6.2,19,0.00,,---,0.00,VWS V14.01,2013-02-01 19:59:00,
2013-02-01 13:04:00,60.4,15.4,30.18,North,357,5.0,5.0,17,0.00,,---,0.00,VWS V14.01,2013-02-01 20:04:00,
2013-02-01 13:09:00,60.4,18.0,30.18,North,1,4.5,4.5,19,0.00,,---,0.00,VWS V14.01,2013-02-01 20:09:00,
2013-02-01 13:14:00,60.3,15.3,30.18,NNE,33,0.0,0.0,17,0.00,,---,0.00,VWS V14.01,2013-02-01 20:14:00,
2013-02-01 13:19:00,61.0,14.5,30.18,North,11,2.8,3.9,16,0.00,,---,0.00,VWS V14.01,2013-02-01 20:19:00,
2013-02-01 13:24:00,61.3,11.8,30.18,North,6,3.4,3.4,14,0.00,,---,0.00,VWS V14.01,2013-02-01 20:24:00,
2013-02-01 13:29:00,61.3,6.4,30.18,WNW,294,0.0,0.0,11,0.00,,---,0.00,VWS V14.01,2013-02-01 20:29:00,
2013-02-01 13:34:00,61.9,12.2,30.18,NNE,27,0.0,0.0,14,0.00,,---,0.00,VWS V14.01,2013-02-01 20:34:00,
2013-02-01 13:39:00,62.2,12.5,30.18,WNW,292,3.9,5.0,14,0.00,,---,0.00,VWS V14.01,2013-02-01 20:39:00,
2013-02-01 13:44:00,62.6,7.4,30.18,North,0,4.5,4.5,11,0.00,,---,0.00,VWS V14.01,2013-02-01 20:44:00,
2013-02-01 13:49:00,62.1,7.0,30.18,North,0,6.7,6.7,11,0.00,,---,0.00,VWS V14.01,2013-02-01 20:49:00,
2013-02-01 13:54:00,62.1,7.0,30.18,NNW,328,5.0,6.2,11,0.00,,---,0.00,VWS V14.01,2013-02-01 20:54:00,
2013-02-01 13:59:00,61.9,6.8,30.18,North,0,6.7,6.7,11,0.00,,---,0.00,VWS V14.01,2013-02-01 20:59:00,
2013-02-01 14:04:00,61.9,6.8,30.18,North,2,2.8,3.9,11,0.00,,---,0.00,VWS V14.01,2013-02-01 21:04:00,
2013-02-01 14:09:00,62.6,7.4,30.18,WNW,301,6.7,6.7,11,0.00,,---,0.00,VWS V14.01,2013-02-01 21:09:00,
2013-02-01 14:14:00,62.6,7.4,30.18,NE,42,0.0,4.5,11,0.00,,---,0.00,VWS V14.01,2013-02-01 21:14:00,
2013-02-01 14:19:00,62.8,7.5,30.18,North,353,3.4,7.3,11,0.00,,---,0.00,VWS V14.01,2013-02-01 21:19:00,
2013-02-01 14:24:00,62.6,7.4,30.18,NE,47,7.3,7.3,11,0.00,,---,0.00,VWS V14.01,2013-02-01 21:24:00,
2013-02-01 14:29:00,62.6,7.4,30.18,North,357,3.9,3.9,11,0.00,,---,0.00,VWS V14.01,2013-02-01 21:29:00,
2013-02-01 14:34:00,62.2,7.1,30.18,North,350,0.0,0.0,11,0.00,,---,0.00,VWS V14.01,2013-02-01 21:34:00,
2013-02-01 14:39:00,62.2,7.1,30.18,North,350,0.0,0.0,11,0.00,,---,0.00,VWS V14.01,2013-02-01 21:39:00,
2013-02-01 14:44:00,62.8,7.5,30.18,North,350,0.0,0.0,11,0.00,,---,0.00,VWS V14.01,2013-02-01 21:44:00,
2013-02-01 14:49:00,63.0,7.7,30.18,West,263,7.3,7.3,11,0.00,,---,0.00,VWS V14.01,2013-02-01 21:49:00,
2013-02-01 14:55:00,62.8,7.5,30.18,North,357,6.7,6.7,11,0.00,,---,0.00,VWS V14.01,2013-02-01 21:55:00,
2013-02-01 15:00:00,62.6,7.4,30.18,NNE,13,3.9,4.5,11,0.00,,---,0.00,VWS V14.01,2013-02-01 22:00:00,
2013-02-01 15:05:00,62.6,7.4,30.18,North,11,4.5,4.5,11,0.00,,---,0.00,VWS V14.01,2013-02-01 22:05:00,
2013-02-01 15:10:00,62.8,7.5,30.18,NW,325,3.4,3.4,11,0.00,,---,0.00,VWS V14.01,2013-02-01 22:10:00,
2013-02-01 15:15:00,62.8,7.5,30.18,North,0,3.9,3.9,11,0.00,,---,0.00,VWS V14.01,2013-02-01 22:15:00,
2013-02-01 15:20:00,62.6,7.4,30.18,North,0,0.0,0.0,11,0.00,,---,0.00,VWS V14.01,2013-02-01 22:20:00,
2013-02-01 15:25:00,62.6,7.4,30.18,NNW,345,6.2,6.2,11,0.00,,---,0.00,VWS V14.01,2013-02-01 22:25:00,
2013-02-01 15:30:00,62.6,7.4,30.18,NW,320,6.2,6.2,11,0.00,,---,0.00,VWS V14.01,2013-02-01 22:30:00,
2013-02-01 15:35:00,62.6,7.4,30.15,NNE,31,0.0,0.0,11,0.00,,---,0.00,VWS V14.01,2013-02-01 22:35:00,
2013-02-01 15:40:00,62.4,7.2,30.15,NNW,332,7.3,7.3,11,0.00,,---,0.00,VWS V14.01,2013-02-01 22:40:00,
2013-02-01 15:45:00,62.2,7.1,30.15,NNE,28,6.7,6.7,11,0.00,,---,0.00,VWS V14.01,2013-02-01 22:45:00,
2013-02-01 15:50:00,61.9,6.8,30.15,North,0,3.9,5.6,11,0.00,,---,0.00,VWS V14.01,2013-02-01 22:50:00,
2013-02-01 15:55:00,61.7,6.7,30.15,NNW,335,0.0,0.0,11,0.00,,---,0.00,VWS V14.01,2013-02-01 22:55:00,
2013-02-01 16:00:00,61.3,6.4,30.15,NNW,342,2.8,4.5,11,0.00,,---,0.00,VWS V14.01,2013-02-01 23:00:00,
2013-02-01 16:05:00,61.3,6.4,30.15,NNE,31,3.4,3.4,11,0.00,,---,0.00,VWS V14.01,2013-02-01 23:05:00,
2013-02-01 16:10:00,60.6,7.8,30.15,North,349,3.4,3.9,12,0.00,,---,0.00,VWS V14.01,2013-02-01 23:10:00,
2013-02-01 16:15:00,60.6,7.8,30.15,North,0,4.5,4.5,12,0.00,,---,0.00,VWS V14.01,2013-02-01 23:15:00,
2013-02-01 16:20:00,60.4,7.6,30.15,NNW,345,4.5,5.0,12,0.00,,---,0.00,VWS V14.01,2013-02-01 23:20:00,
2013-02-01 16:25:00,60.4,7.6,30.15,North,357,0.0,0.0,12,0.00,,---,0.00,VWS V14.01,2013-02-01 23:25:00,
2013-02-01 16:30:00,60.4,7.6,30.15,North,10,0.0,3.4,12,0.00,,---,0.00,VWS V14.01,2013-02-01 23:30:00,
2013-02-01 16:35:00,60.1,7.3,30.15,North,0,0.0,3.9,12,0.00,,---,0.00,VWS V14.01,2013-02-01 23:35:00,
2013-02-01 16:40:00,59.9,7.2,30.15,NNE,29,0.0,0.0,12,0.00,,---,0.00,VWS V14.01,2013-02-01 23:40:00,
2013-02-01 16:46:00,59.7,7.0,30.15,North,3,0.0,3.4,12,0.00,,---,0.00,VWS V14.01,2013-02-01 23:46:00,
2013-02-01 16:51:00,59.4,6.8,30.15,North,7,3.4,3.9,12,0.00,,---,0.00,VWS V14.01,2013-02-01 23:51:00,
2013-02-01 16:56:00,59.4,10.2,30.15,NNW,340,3.4,3.9,14,0.00,,---,0.00,VWS V14.01,2013-02-01 23:56:00,
2013-02-01 17:01:00,59.2,10.0,30.15,NNW,337,3.4,3.4,14,0.00,,---,0.00,VWS V14.01,2013-02-02 00:01:00,
2013-02-01 17:06:00,58.8,9.8,30.15,North,353,0.0,0.0,14,0.00,,---,0.00,VWS V14.01,2013-02-02 00:06:00,
2013-02-01 17:11:00,58.3,9.3,30.15,North,353,0.0,0.0,14,0.00,,---,0.00,VWS V14.01,2013-02-02 00:11:00,
2013-02-01 17:16:00,58.1,9.2,30.15,North,357,0.0,0.0,14,0.00,,---,0.00,VWS V14.01,2013-02-02 00:16:00,
2013-02-01 17:21:00,57.2,8.4,30.15,North,2,0.0,0.0,14,0.00,,---,0.00,VWS V14.01,2013-02-02 00:21:00,
2013-02-01 17:26:00,56.3,9.3,30.15,North,0,0.0,0.0,15,0.00,,---,0.00,VWS V14.01,2013-02-02 00:26:00,
2013-02-01 17:31:00,55.6,8.7,30.15,NNW,345,0.0,0.0,15,0.00,,---,0.00,VWS V14.01,2013-02-02 00:31:00,
2013-02-01 17:36:00,54.9,8.1,30.15,NNW,348,0.0,0.0,15,0.00,,---,0.00,VWS V14.01,2013-02-02 00:36:00,
2013-02-01 17:41:00,54.7,8.0,30.15,West,280,0.0,0.0,15,0.00,,---,0.00,VWS V14.01,2013-02-02 00:41:00,
2013-02-01 17:46:00,53.1,10.7,30.15,West,279,0.0,0.0,18,0.00,,---,0.00,VWS V14.01,2013-02-02 00:46:00,
2013-02-01 17:51:00,52.7,10.4,30.15,SW,221,0.0,0.0,18,0.00,,---,0.00,VWS V14.01,2013-02-02 00:51:00,
2013-02-01 17:56:00,51.6,16.0,30.15,SW,221,0.0,0.0,24,0.00,,---,0.00,VWS V14.01,2013-02-02 00:56:00,
2013-02-01 18:01:00,50.9,15.4,30.15,SW,222,0.0,0.0,24,0.00,,---,0.00,VWS V14.01,2013-02-02 01:01:00,
2013-02-01 18:06:00,50.0,16.5,30.15,SW,225,0.0,0.0,26,0.00,,---,0.00,VWS V14.01,2013-02-02 01:06:00,
2013-02-01 18:11:00,49.3,15.9,30.18,WSW,244,0.0,0.0,26,0.00,,---,0.00,VWS V14.01,2013-02-02 01:11:00,
2013-02-01 18:16:00,48.2,15.8,30.18,West,271,0.0,0.0,27,0.00,,---,0.00,VWS V14.01,2013-02-02 01:16:00,
2013-02-01 18:21:00,47.3,15.0,30.18,West,271,0.0,0.0,27,0.00,,---,0.00,VWS V14.01,2013-02-02 01:21:00,
2013-02-01 18:26:00,46.6,15.2,30.18,WNW,290,0.0,0.0,28,0.00,,---,0.00,VWS V14.01,2013-02-02 01:26:00,
2013-02-01 18:31:00,45.9,15.4,30.18,West,269,0.0,0.0,29,0.00,,---,0.00,VWS V14.01,2013-02-02 01:31:00,
2013-02-01 18:36:00,45.1,15.6,30.18,West,268,0.0,0.0,30,0.00,,---,0.00,VWS V14.01,2013-02-02 01:36:00,
2013-02-01 18:42:00,44.4,15.7,30.18,West,269,0.0,0.0,31,0.00,,---,0.00,VWS V14.01,2013-02-02 01:42:00,
2013-02-01 18:47:00,43.9,16.7,30.18,South,185,0.0,0.0,33,0.00,,---,0.00,VWS V14.01,2013-02-02 01:47:00,
2013-02-01 18:52:00,43.7,16.5,30.18,South,173,0.0,0.0,33,0.00,,---,0.00,VWS V14.01,2013-02-02 01:52:00,
2013-02-01 18:57:00,43.3,17.5,30.18,West,280,0.0,0.0,35,0.00,,---,0.00,VWS V14.01,2013-02-02 01:57:00,
2013-02-01 19:02:00,43.0,17.9,30.18,SW,225,0.0,0.0,36,0.00,,---,0.00,VWS V14.01,2013-02-02 02:02:00,
2013-02-01 19:07:00,43.0,17.9,30.21,SW,224,0.0,0.0,36,0.00,,---,0.00,VWS V14.01,2013-02-02 02:07:00,
2013-02-01 19:12:00,41.9,17.5,30.21,SW,224,0.0,0.0,37,0.00,,---,0.00,VWS V14.01,2013-02-02 02:12:00,
2013-02-01 19:17:00,41.5,17.8,30.21,South,189,0.0,0.0,38,0.00,,---,0.00,VWS V14.01,2013-02-02 02:17:00,
2013-02-01 19:22:00,40.8,19.0,30.21,SSW,208,0.0,0.0,41,0.00,,---,0.00,VWS V14.01,2013-02-02 02:22:00,
2013-02-01 19:27:00,40.6,18.8,30.21,WSW,246,0.0,0.0,41,0.00,,---,0.00,VWS V14.01,2013-02-02 02:27:00,
2013-02-01 19:32:00,40.5,19.2,30.21,SSE,158,0.0,0.0,42,0.00,,---,0.00,VWS V14.01,2013-02-02 02:32:00,
2013-02-01 19:37:00,40.1,18.9,30.21,North,8,0.0,0.0,42,0.00,,---,0.00,VWS V14.01,2013-02-02 02:37:00,
2013-02-01 19:42:00,39.9,18.7,30.21,NW,321,0.0,0.0,42,0.00,,---,0.00,VWS V14.01,2013-02-02 02:42:00,
2013-02-01 19:47:00,39.7,19.1,30.21,NW,321,0.0,0.0,43,0.00,,---,0.00,VWS V14.01,2013-02-02 02:47:00,
2013-02-01 19:52:00,39.4,19.3,30.21,NW,321,0.0,0.0,44,0.00,,---,0.00,VWS V14.01,2013-02-02 02:52:00,
2013-02-01 19:58:00,39.0,20.5,30.21,NW,314,0.0,0.0,47,0.00,,---,0.00,VWS V14.01,2013-02-02 02:58:00,
2013-02-01 20:03:00,38.8,20.8,30.21,NW,314,0.0,0.0,48,0.00,,---,0.00,VWS V14.01,2013-02-02 03:03:00,
2013-02-01 20:08:00,38.1,19.7,30.21,NW,314,0.0,0.0,47,0.00,,---,0.00,VWS V14.01,2013-02-02 03:08:00,
2013-02-01 20:13:00,37.6,19.2,30.21,NW,314,0.0,0.0,47,0.00,,---,0.00,VWS V14.01,2013-02-02 03:13:00,
2013-02-01 20:18:00,37.2,19.4,30.21,WNW,299,0.0,0.0,48,0.00,,---,0.00,VWS V14.01,2013-02-02 03:18:00,
2013-02-01 20:23:00,36.9,19.5,30.21,WNW,299,0.0,0.0,49,0.00,,---,0.00,VWS V14.01,2013-02-02 03:23:00,
2013-02-01 20:28:00,36.7,20.7,30.21,WNW,299,0.0,0.0,52,0.00,,---,0.00,VWS V14.01,2013-02-02 03:28:00,
2013-02-01 20:33:00,36.7,21.2,30.21,WNW,299,0.0,0.0,53,0.00,,---,0.00,VWS V14.01,2013-02-02 03:33:00,
2013-02-01 20:38:00,36.5,21.0,30.21,WNW,299,0.0,0.0,53,0.00,,---,0.00,VWS V14.01,2013-02-02 03:38:00,
2013-02-01 20:43:00,36.3,20.8,30.21,WNW,299,0.0,0.0,53,0.00,,---,0.00,VWS V14.01,2013-02-02 03:43:00,
2013-02-01 20:48:00,35.8,19.9,30.21,WNW,299,0.0,0.0,52,0.00,,---,0.00,VWS V14.01,2013-02-02 03:48:00,
2013-02-01 20:53:00,35.6,20.2,30.21,WNW,299,0.0,0.0,53,0.00,,---,0.00,VWS V14.01,2013-02-02 03:53:00,
2013-02-01 20:58:00,35.6,21.5,30.21,WNW,299,0.0,0.0,56,0.00,,---,0.00,VWS V14.01,2013-02-02 03:58:00,
2013-02-01 21:03:00,35.6,21.5,30.21,SW,233,0.0,0.0,56,0.00,,---,0.00,VWS V14.01,2013-02-02 04:03:00,
2013-02-01 21:08:00,35.4,21.7,30.24,SW,233,0.0,0.0,57,0.00,,---,0.00,VWS V14.01,2013-02-02 04:08:00,
2013-02-01 21:13:00,35.6,23.5,30.24,SW,233,0.0,0.0,61,0.00,,---,0.00,VWS V14.01,2013-02-02 04:13:00,
2013-02-01 21:19:00,35.2,22.8,30.24,SW,233,0.0,0.0,60,0.00,,---,0.00,VWS V14.01,2013-02-02 04:19:00,
2013-02-01 21:24:00,35.1,22.2,30.24,SW,233,0.0,0.0,59,0.00,,---,0.00,VWS V14.01,2013-02-02 04:24:00,
2013-02-01 21:29:00,34.9,22.4,30.24,SW,224,0.0,0.0,60,0.00,,---,0.00,VWS V14.01,2013-02-02 04:29:00,
2013-02-01 21:34:00,34.9,22.4,30.24,SSW,211,0.0,0.0,60,0.00,,---,0.00,VWS V14.01,2013-02-02 04:34:00,
2013-02-01 21:39:00,34.7,22.2,30.24,SSW,211,0.0,0.0,60,0.00,,---,0.00,VWS V14.01,2013-02-02 04:39:00,
2013-02-01 21:44:00,34.5,22.9,30.24,SSW,211,0.0,0.0,62,0.00,,---,0.00,VWS V14.01,2013-02-02 04:44:00,
2013-02-01 21:49:00,34.5,22.9,30.24,SW,232,0.0,0.0,62,0.00,,---,0.00,VWS V14.01,2013-02-02 04:49:00,
2013-02-01 21:54:00,34.3,22.7,30.24,SW,233,0.0,0.0,62,0.00,,---,0.00,VWS V14.01,2013-02-02 04:54:00,
2013-02-01 21:59:00,34.5,24.4,30.24,SW,230,0.0,0.0,66,0.00,,---,0.00,VWS V14.01,2013-02-02 04:59:00,
2013-02-01 22:00:00,34.5,24.0,30.24,SW,230,0.0,0.0,65,0.00,,---,0.00,VWS V14.01,2013-02-02 05:00:00,
2013-02-01 22:01:00,34.5,24.0,30.24,SW,230,0.0,0.0,65,0.00,,---,0.00,VWS V14.01,2013-02-02 05:01:00,
2013-02-01 22:06:00,34.5,24.4,30.24,SSW,209,0.0,0.0,66,0.00,,---,0.00,VWS V14.01,2013-02-02 05:06:00,
2013-02-01 22:11:00,34.3,24.5,30.24,SSW,209,0.0,0.0,67,0.00,,---,0.00,VWS V14.01,2013-02-02 05:11:00,
2013-02-01 22:16:00,34.3,24.9,30.24,SSW,209,0.0,0.0,68,0.00,,---,0.00,VWS V14.01,2013-02-02 05:16:00,
2013-02-01 22:21:00,34.3,24.9,30.24,West,280,0.0,0.0,68,0.00,,---,0.00,VWS V14.01,2013-02-02 05:21:00,
2013-02-01 22:26:00,34.3,24.5,30.24,SSW,205,0.0,0.0,67,0.00,,---,0.00,VWS V14.01,2013-02-02 05:26:00,
2013-02-01 22:31:00,34.3,24.5,30.24,SSW,205,0.0,0.0,67,0.00,,---,0.00,VWS V14.01,2013-02-02 05:31:00,
2013-02-01 22:36:00,34.3,24.5,30.24,SSW,205,0.0,0.0,67,0.00,,---,0.00,VWS V14.01,2013-02-02 05:36:00,
2013-02-01 22:41:00,34.2,24.4,30.24,SSW,205,0.0,0.0,67,0.00,,---,0.00,VWS V14.01,2013-02-02 05:41:00,
2013-02-01 22:46:00,34.3,25.6,30.24,SE,139,0.0,0.0,70,0.00,,---,0.00,VWS V14.01,2013-02-02 05:46:00,
2013-02-01 22:51:00,34.5,25.8,30.24,SE,142,0.0,0.0,70,0.00,,---,0.00,VWS V14.01,2013-02-02 05:51:00,
2013-02-01 22:56:00,34.5,25.4,30.24,SSE,167,0.0,0.0,69,0.00,,---,0.00,VWS V14.01,2013-02-02 05:56:00,
2013-02-01 23:01:00,34.5,25.8,30.24,SSE,167,0.0,0.0,70,0.00,,---,0.00,VWS V14.01,2013-02-02 06:01:00,
2013-02-01 23:06:00,34.5,25.8,30.24,SSE,167,0.0,0.0,70,0.00,,---,0.00,VWS V14.01,2013-02-02 06:06:00,
2013-02-01 23:12:00,34.3,25.2,30.24,SSE,167,0.0,0.0,69,0.00,,---,0.00,VWS V14.01,2013-02-02 06:12:00,
2013-02-01 23:17:00,34.3,25.6,30.24,SSE,167,0.0,0.0,70,0.00,,---,0.00,VWS V14.01,2013-02-02 06:17:00,
2013-02-01 23:22:00,34.3,25.2,30.24,SSE,167,0.0,0.0,69,0.00,,---,0.00,VWS V14.01,2013-02-02 06:22:00,
2013-02-01 23:27:00,34.3,24.9,30.24,SSE,167,0.0,0.0,68,0.00,,---,0.00,VWS V14.01,2013-02-02 06:27:00,
2013-02-01 23:32:00,34.3,24.9,30.24,SSE,167,0.0,0.0,68,0.00,,---,0.00,VWS V14.01,2013-02-02 06:32:00,
2013-02-01 23:37:00,34.2,24.7,30.24,SSE,167,0.0,0.0,68,0.00,,---,0.00,VWS V14.01,2013-02-02 06:37:00,
2013-02-01 23:42:00,34.2,24.7,30.24,South,190,0.0,0.0,68,0.00,,---,0.00,VWS V14.01,2013-02-02 06:42:00,
2013-02-01 23:47:00,34.0,24.5,30.24,South,190,0.0,0.0,68,0.00,,---,0.00,VWS V14.01,2013-02-02 06:47:00,
2013-02-01 23:52:00,33.8,24.4,30.24,SSW,197,0.0,0.0,68,0.00,,---,0.00,VWS V14.01,2013-02-02 06:52:00,
2013-02-01 23:57:00,33.8,24.7,30.24,SSW,197,0.0,0.0,69,0.00,,---,0.00,VWS V14.01,2013-02-02 06:57:00,